Weather History for KARM - January, 2013

Change the Weather History Date:

Saturday, January 12, 2013

  Actual Average (KPSX) Record (KPSX)
Temperature  
Mean Temperature 71 °F -  
Max Temperature 73 °F 59 °F 78 °F (1950)
Min Temperature 69 °F 40 °F 14 °F (1962)
Cooling Degree Days 6    
Growing Degree Days 21 (Base 50)    
Moisture  
Dew Point 69 °F    
Average Humidity 93    
Maximum Humidity 100    
Minimum Humidity 88    
Precipitation  
Precipitation 0.01 in - - ()
Sea Level Pressure  
Sea Level Pressure 29.79 in    
Wind  
Wind Speed 15 mph (SSE)    
Max Wind Speed 29 mph    
Max Gust Speed 34 mph    
Visibility 6 miles    
Events Rain    
Averages and records for this station are not official NWS values.
T = Trace of Precipitation, MM = Missing Value Source: NWS Daily Summary

Daily Weather History Graph

Daily Weather History Graph

Search for Another Location

Airport or City:

Trip Planner

Search our weather history database for the weather conditions in past years. The results will help you decide how hot, cold, wet, or windy it might be!

Date:

Astronomy

Jan. 12, 2013 Rise Set
Actual Time 7:19 AM CST 5:46 PM CST
Civil Twilight 6:54 AM CST 6:12 PM CST
Nautical Twilight 6:25 AM CST 6:41 PM CST
Astronomical Twilight 5:56 AM CST 7:10 PM CST
Moon 7:47 AM CST (1/12) 7:07 PM CST (1/12)
Length of Visible Light 11h 17m
Length of Day
10h 26m
New Moon, 1% of the Moon is Illuminated
Jan 12
New Moon
Jan 18
First Quarter
Jan 26
Full
Feb 3
Last Quarter
Feb 10
New

Hourly Weather History & Observations

Time (CST) Temp. Dew Point Humidity Pressure Visibility Wind Dir Wind Speed Gust Speed Precip Events Conditions
12:15 AM 69.8 °F 68.0 °F 94% 29.89 in 5.0 mi South 9.2 mph - N/A   Overcast
12:35 AM 69.8 °F 68.0 °F 94% 29.89 in 4.0 mi South 10.4 mph - N/A Rain Rain
12:55 AM 69.8 °F 68.0 °F 94% 29.89 in 5.0 mi South 8.1 mph - 0.01 in   Overcast
1:15 AM 69.8 °F 68.0 °F 94% 29.88 in 4.0 mi SSE 8.1 mph - N/A Rain Rain
1:35 AM 69.8 °F 69.8 °F 100% 29.88 in 3.0 mi SSE 11.5 mph - N/A Rain Light Rain
2:15 AM 69.8 °F 69.8 °F 100% 29.87 in 4.0 mi SSE 13.8 mph 21.9 mph N/A   Overcast
2:55 AM 69.8 °F 69.8 °F 100% 29.87 in 5.0 mi SSE 17.3 mph - N/A   Overcast
3:15 AM 69.8 °F 69.8 °F 100% 29.87 in 5.0 mi SSE 17.3 mph 23.0 mph N/A   Overcast
3:35 AM 69.8 °F 69.8 °F 100% 29.86 in 5.0 mi SSE 17.3 mph 25.3 mph N/A   Overcast
4:15 AM 69.8 °F 69.8 °F 100% 29.83 in 5.0 mi SSE 19.6 mph 25.3 mph N/A   Overcast
4:35 AM 71.6 °F 69.8 °F 94% 29.82 in 7.0 mi SSE 17.3 mph 26.5 mph N/A   Overcast
5:55 AM 69.8 °F 68.0 °F 94% 29.82 in 7.0 mi SSE 16.1 mph 20.7 mph N/A   Overcast
8:15 AM 69.8 °F 68.0 °F 94% 29.85 in 7.0 mi SSE 18.4 mph - N/A   Overcast
9:35 AM 71.6 °F 68.0 °F 88% 29.86 in 7.0 mi SE 21.9 mph 27.6 mph N/A   Overcast
9:55 AM 71.6 °F 68.0 °F 88% 29.86 in 5.0 mi SSE 21.9 mph 27.6 mph N/A Rain Light Rain
10:15 AM 71.6 °F 69.8 °F 94% 29.85 in 5.0 mi SSE 23.0 mph 26.5 mph N/A   Light Drizzle
10:35 AM 71.6 °F 69.8 °F 94% 29.84 in 7.0 mi SE 23.0 mph 28.8 mph N/A   Overcast
10:55 AM 71.6 °F 69.8 °F 94% 29.84 in 7.0 mi SSE 21.9 mph 27.6 mph N/A   Overcast
11:15 AM 71.6 °F 69.8 °F 94% 29.83 in 7.0 mi SSE 20.7 mph 29.9 mph N/A   Overcast
11:55 AM 71.6 °F 69.8 °F 94% 29.82 in 7.0 mi SSE 17.3 mph - N/A   Overcast
12:15 PM 71.6 °F 69.8 °F 94% 29.82 in 5.0 mi South 17.3 mph 27.6 mph N/A   Overcast
12:55 PM 71.6 °F 69.8 °F 94% 29.78 in 7.0 mi SSE 19.6 mph 25.3 mph N/A   Overcast
1:35 PM 71.6 °F 69.8 °F 94% 29.77 in 5.0 mi SSE 20.7 mph 26.5 mph N/A   Overcast
1:55 PM 71.6 °F 69.8 °F 94% 29.76 in 5.0 mi SSE 23.0 mph 31.1 mph N/A   Overcast
2:35 PM 73.4 °F 69.8 °F 88% 29.75 in 7.0 mi South 23.0 mph 28.8 mph N/A   Overcast
2:55 PM 73.4 °F 69.8 °F 88% 29.74 in 7.0 mi SSE 21.9 mph 27.6 mph N/A   Overcast
3:15 PM 73.4 °F 69.8 °F 88% 29.74 in 7.0 mi SSE 21.9 mph 29.9 mph N/A   Overcast
3:35 PM 73.4 °F 69.8 °F 88% 29.73 in 7.0 mi SSE 26.5 mph 33.4 mph N/A   Overcast
3:55 PM 73.4 °F 69.8 °F 88% 29.72 in 7.0 mi SSE 26.5 mph 32.2 mph N/A   Overcast
4:15 PM 71.6 °F 68.0 °F 88% 29.69 in 5.0 mi SSE 23.0 mph 33.4 mph N/A   Overcast
4:35 PM 71.6 °F 68.0 °F 88% 29.73 in 7.0 mi SSE 17.3 mph 21.9 mph N/A   Overcast
5:15 PM 71.6 °F 68.0 °F 88% 29.70 in 5.0 mi SE 28.8 mph 34.5 mph N/A   Overcast
5:35 PM 71.6 °F 68.0 °F 88% 29.72 in 7.0 mi SSE 17.3 mph 28.8 mph N/A   Overcast
6:15 PM 71.6 °F 68.0 °F 88% 29.72 in 7.0 mi SSE 18.4 mph 26.5 mph N/A   Overcast
6:35 PM 71.6 °F 68.0 °F 88% 29.73 in 7.0 mi SSE 16.1 mph 20.7 mph N/A   Overcast
7:15 PM 71.6 °F 69.8 °F 94% 29.73 in 7.0 mi South 15.0 mph 23.0 mph N/A   Overcast
7:35 PM 71.6 °F 69.8 °F 94% 29.75 in 7.0 mi SSW 12.7 mph 20.7 mph N/A   Overcast
7:55 PM 71.6 °F 69.8 °F 94% 29.74 in 7.0 mi South 16.1 mph 21.9 mph N/A   Overcast
8:15 PM 71.6 °F 69.8 °F 94% 29.75 in 5.0 mi South 16.1 mph - N/A Rain Light Rain
8:35 PM 71.6 °F 69.8 °F 94% 29.75 in 5.0 mi South 13.8 mph 18.4 mph N/A   Overcast
8:55 PM 71.6 °F 69.8 °F 94% 29.74 in 7.0 mi South 15.0 mph - N/A   Overcast
9:15 PM 71.6 °F 69.8 °F 94% 29.75 in 5.0 mi South 17.3 mph - N/A   Overcast
9:35 PM 69.8 °F 69.8 °F 100% 29.72 in 4.0 mi SSE 17.3 mph 23.0 mph N/A   Overcast
9:55 PM 71.6 °F 69.8 °F 94% 29.76 in 7.0 mi South 12.7 mph 18.4 mph N/A   Overcast
10:15 PM 71.6 °F 69.8 °F 94% 29.76 in 5.0 mi South 10.4 mph - N/A   Overcast
10:35 PM 71.6 °F 69.8 °F 94% 29.77 in 5.0 mi South 9.2 mph - N/A   Overcast
10:55 PM 69.8 °F 68.0 °F 94% 29.77 in 5.0 mi South 6.9 mph - N/A   Overcast
11:15 PM 69.8 °F 68.0 °F 94% 29.77 in 5.0 mi South 6.9 mph - N/A   Overcast
11:35 PM 69.8 °F 68.0 °F 94% 29.78 in 5.0 mi South 4.6 mph - N/A   Overcast